Location: Gibsondale
(40.9931°N, 80.2478°W)
Time: 18:04:31
(UTC+00:00)

Cosmos 2058 Rocket - Pass Details

Date: 29 October 2020
Orbit: 610 x 639 km, 82.5° (Epoch: 23 November)

Event Time Altitude Azimuth Distance (km) Brightness Sun altitude
Rises 23:07:14 0° 185° (S) 2,912 6.7 -9.5°
Reaches altitude 10° 23:09:27 10° 185° (S) 2,013 5.9 -9.9°
Maximum altitude 23:13:56 86° 96° (E) 645 3.1 -10.8°
Drops below altitude 10° 23:18:28 10° 9° (N) 2,038 5.5 -11.6°
Sets 23:20:43 0° 9° (N) 2,952 6.4 -12.0°
